Погода в Красной Сибири

Россия / Новосибирская область     54°19′02″N   80°29′21″E
темп.,
°C
ветер,
м/с
пор.,
м/с
влажн.,
%
обл.,
%
осадки,
мм/ч
давл.,
гПа
погр.,
м
18 августа, чт
чт1801:00+7зюз2287100 0.6 101235
04:00+8зюз368895 0.0 1011167
07:00+7зюз3694100 0.2 1011259
10:00+8зюз3592100 1.1 1012425
13:00+10з237869 1.6 1013613
16:00+11зюз3476100 1.5 1013665
19:00+10зюз358679 2.5 1013283
22:00+8з228947 0.4 101418
19 августа, пт
пт1901:00+8ссз118937 0.4 101417
04:00+6ссз229114 0.0 101423
07:00+7ссз2697100 0.0 1014197
10:00+10сз3592100 0.3 1015452
13:00+9сз4693100 0.9 1015456
16:00+9сз5895100 0.4 1015517
19:00+9з3597100 1.7 1016223
22:00+10зсз249392 0.2 101690
20 августа, сб
сб2001:00+9сз359788 0.2 1017146
04:00+8сз229711 0.0 101727
07:00+7сз11975 0.0 101812
10:00+12ссз118174 0.0 1019359
13:00+14с2273100 0.0 1020497
16:00+18с33515 0.0 10191298
19:00+18с445099 0.0 10191459
22:00+14с357467 0.1 102084
21 августа, вс
вс2101:00+11с3581100 0.1 102176
04:00+11с3484100 0.0 102057
07:00+12с3681100 0.0 1021146
10:00+14с3568100 0.0 1021234
13:00+17ссз3552100 0.0 1021713
16:00+20ссз564097 0.0 10202218
19:00+18сз474779 0.0 1020407
22:00+15сз3459100 0.0 102191
22 августа, пн
пн2201:00+12с378681 0.1 1021205
04:00+12сз2590100 0.0 1021215
07:00+11ссз3596100 0.1 1022284
10:00+13с348365 0.2 1023580
13:00+16с336398 0.6 10231120
16:00+19с344273 0.2 10231981
19:00+19с443816 0.2 10231989
22:00+13ссв49588 0.0 1024156